Regional Weather Roundup
Issued by NWS Upton, NY

Current Version | Previous Version | Text Only | Print | Product List | Glossary On
Versions: 1 2 3 4 5 6 7 8 9 10 11 12 13 14 15 16 17 18 19 20 21 22 23 24 25 26 27 28 29 30 31 32 33 34 35 36 37 38 39 40 41 42 43 44 45 46 47 48 49 50
000
ASUS41 KOKX 302308
RWROKX

REGIONAL WEATHER ROUNDUP
NATIONAL WEATHER SERVICE NEW YORK NY
700 PM EDT FRI SEP 30 2016

NOTE: "FAIR" INDICATES FEW OR NO CLOUDS BELOW 12,000 FEET WITH NO
SIGNIFICANT WEATHER AND/OR OBSTRUCTIONS TO VISIBILITY.

NYZ071-072-176-178-NJZ106-104-010000-
NEW YORK CITY METRO AREA

CITY           SKY/WX    TMP DP  RH WIND       PRES   REMARKS
Central Park   LGT RAIN  58  56  93 VRB7      30.28R FOG
LaGuardia APRT LGT RAIN  61  58  90 NE22G30   30.26R FOG
Kennedy INTL   LGT RAIN  60  57  89 NE16G22   30.25R FOG
Newark/Liberty LGT RAIN  58  57  97 NE14      30.25S VSB 1
Bronx Bot Gard   N/A     55  54  94 E14       30.26F
Wall St Helipt CLOUDY    61  61 100 NE14G28   30.25R
Teterboro      DRIZZLE   58  54  86 NE6       30.26R FOG
$$

NYZ177-179-078>081-010000-
LONG ISLAND NEW YORK

CITY           SKY/WX    TMP DP  RH WIND       PRES   REMARKS
Farmingdale    LGT RAIN  59  57  93 E13G22    30.24R FOG
MacArthur/ISP  CLOUDY    59  57  93 NE18G28   30.24R FOG
Shirley        LGT RAIN  58  57  97 VRB7      30.26R FOG
Riverhead      NOT AVBL
Westhampton    LGT RAIN  59  57  93 NE16G28   30.27R
Southampton      N/A     59  57  94 E9        30.22R
Bridgehampton    N/A     57  57 100 E5        30.10F
East Hampton   LGT RAIN  58  57  95 NE12G28   30.25S
Montauk          N/A     60  58  92 NE15G29   30.27F
$$

NYZ052-065-067-010000-
HUDSON VALLEY

CITY           SKY/WX    TMP DP  RH WIND       PRES   REMARKS
White Plains   CLOUDY    57  52  83 NE13G20   30.26R
Newburgh       DRIZZLE   54  54 100 NE14      30.32R FOG
Montgomery     LGT RAIN  55  53  93 NE13G20   30.30S FOG
Poughkeepsie   CLOUDY    54  53  97 N8        30.31R
Albany         LGT RAIN  59  48  67 SE3       30.35S
$$

NJZ001-105-106-008-010-013-015-019>022-104-010000-
NEW JERSEY

CITY           SKY/WX    TMP DP  RH WIND       PRES   REMARKS
Newark/Liberty LGT RAIN  58  57  97 NE14      30.25S VSB 1
Teterboro      DRIZZLE   58  54  86 NE6       30.26R FOG
Caldwell       CLOUDY    57  55  93 NE6       30.27S FOG
Morristown     LGT RAIN  57  55  94 NE8       30.27R FOG
Somerville     CLOUDY    59  55  87 NE8G17    30.23S
Linden         NOT AVBL
Sussex         CLOUDY    55  54  96 NE10G18   30.29R FOG
Abdover          N/A     55  54  96 VRB3      30.27S
Trenton        CLOUDY    59  57  93 NE13      30.23R FOG
Millville      CLOUDY    64  63  96 NE17G23   30.16R
Atlantic City  CLOUDY    63  61  93 NE17      30.16R FOG
Wrightstown    LGT RAIN  61  59  94 NE13G22   30.17S FOG
Toms River     LGT RAIN  62  61  96 NE14G24   30.20S FOG
Belmar         LGT RAIN  60  59  96 NE20G30   30.22R FOG
$$

PAZ047>061-062-071-010000-
EASTERN PENNSYLVANIA

CITY           SKY/WX    TMP DP  RH WIND       PRES   REMARKS
Philadelphia   CLOUDY    61  59  93 NE15G25   30.20R
Allentown      LGT RAIN  58  55  90 NE13      30.24S FOG
Scranton       CLOUDY    57  52  83 E8        30.25S
$$

CTZ002-004>006-009-010-012-RIZ004-006-007-MAZ004-011-015-010000-
SOUTHERN NEW ENGLAND
 IN CT

CITY           SKY/WX    TMP DP  RH WIND       PRES   REMARKS
Bradley INTL   LGT RAIN  53  51  93 N14       30.35F FOG
Hartford       CLOUDY    55  54  96 N13       30.33S
Danbury        LGT RAIN  54  51  90 NE12G23   30.30S FOG
Wtrbury/Oxford NOT AVBL
Bridgeport     CLOUDY    58  54  86 NE16      30.28R
Meriden        CLOUDY    57  53  86 N7        30.31F
New Haven      CLOUDY    56  54  93 N13       30.29R FOG
Chester        DRIZZLE   55  54  94 NE13G18   30.29S
Groton         CLOUDY    59  55  87 NE17G24   30.28F
Wilimantic     LGT RAIN  56  54  93 NE12      30.34S FOG

 IN RI

CITY           SKY/WX    TMP DP  RH WIND       PRES   REMARKS
Providence     RAIN      57  54  89 NE12      30.35S FOG
Block Island   LGT RAIN  59  58  96 NE18G35   30.28S FOG
Westerly       CLOUDY    58  54  86 NE10      30.30S FOG
 IN MA

CITY           SKY/WX    TMP DP  RH WIND       PRES   REMARKS
Boston         LGT RAIN  56  54  93 NE15      30.39S FOG
Worcester      LGT RAIN  50  47  89 NE12G21   30.37S FOG
Westfield      LGT RAIN  53  51  93 N9        30.37S FOG
Provincetown   CLOUDY    58  56  93 E13       30.37F
Nantucket      LGT RAIN  59  57  93 NE18G28   30.30S FOG
$$

ANZ330-335-338-340-345-350-353-355-010000-
COASTAL MARINE OBSERVATIONS


STATION/POSITION TIME  SKY/WX   TEMP    WIND        PRES    VSBY  WAVE
                                AIR SEA DIR/SP/G                  HT/PER
                 (UTC)          (F)     (DEG/KT/KT) (MB)    (MI)  (FT/S)
NY HARB ENTRANCE 2250            62 69   50/ 27/ 33 1021.8         12/ 9
20S FIRE ISLAND  2150            63 67   60/ 31/ 39 1020.4         14/ 9
GREAT SOUTH BAY  2230            60 64   50/ 19/ 21   N/A
23 SSW MONTAUK P 2250            61 65   70/ 31/ 37 1022.7         12/ 8
15 E BARNEGAT LI 2200               69                N/A          13/ 9
HUDSON CANYON    2150            69 71              1019.2         11/10
KINGS POINT      2224            59 69              1023.9
EXECUTION ROCKS  2245            61      60/ 25/ 31   N/A
CENTRAL LI SOUND NOT AVBL
EASTERN LI SOUND NOT AVBL
ROBBINS REEF     2224            60      50/ 18/ 23 1024.1
$$


>>>>>>>>>>>>>>>>>>>>>>>>>>>> KEY <<<<<<<<<<<<<<<<<<<<<<<<<<<
>                                                          <
>     SKY/WX - Sky Condition/Present Weather               <
>     TMP    - Temperature in Fahrenheit                   <
>     DP     - Dew Point in Fahrenheit                     <
>     RH     - Relative Humidity in Percent                <
>     WIND   - Direction (from) and Speed in MPH           <
>     PRES   - Mean Sea Level Pressure (inches of Hg)      <
>     WCI    - Wind Chill Index                            <
>     VSB    - VISIBILITY IN MILES                         <
>     HX     - HEAT INDEX                                  <
>     TC     - TEMPERATURE IN CELSIUS                      <
>     VRB    - VARIABLE WIND DIRECTION                     <
>                                                          <
>>>>>>>>>>>>>>>>>>>>>>>>>>>> KEY <<<<<<<<<<<<<<<<<<<<<<<<<<<




USA.gov is the U.S. government's official web portal to all federal, state and local government web resources and services.